FALCON 9 DEB (48152 NORAD) Tracking and Keplerian Element Data

This shows tracking and keplerian element data for the satellite.

Feedback or suggestion? Click here.




ElementValue
Catalog48152
NameFALCON 9 DEB
Epoch Orbit416
Epoch Day123.49085307
Epoch Year2021
RAAN206.3696
Inclination53.0336
Eccentricity0.0007413
Argument of Perigee294.3563
Mean Anonmoly65.671
Mean Motion16.41838377
Decay Rate0.06678337
L11 48152U 21027BN 21123.49085307 .06678337 12458-4 38142-3 0 9992
L22 48152 53.0336 206.3696 0007413 294.3563 65.6710 16.41838377 4165

Live tracking and technical data element details for FALCON 9 DEB (NORAD 48152). FALCON 9 DEB can be tracked NOW for your location showing map with azimuth and elevation plus other details from your city location.

Track the satellite on the map from your city or location and see movement details for azimuth, elevation, latitude, longitude, range, height, and movement on the map or in text.







IsCatalogInMostPopularTable: catalog: 48152, numindb: 21
Update: records affected: 1



GetName: 48152 FALCON 9 DEB

Hit Count: updated at: Mon, 17 May 2021 16:19:04 GMT